Regional Weather Roundup
Issued by NWS

Home | Current Version | Previous Version | Graphics & Text | Print | Product List | Glossary On
Versions: 1 2 3 4 5 6 7 8 9 10 11 12 13 14 15 16 17 18 19 20 21 22 23 24 25 26 27 28 29 30 31 32 33 34 35 36 37 38 39 40 41 42 43 44 45 46 47 48 49 50
000
ASUS45 KABQ 182010
RWRNM
WEATHER ROUNDUP FOR NEW MEXICO
NATIONAL WEATHER SERVICE ALBUQUERQUE NM
100 PM MST THU DEC 18 2014

NOTE: "FAIR" MEANS FEW OR NO CLOUDS BELOW 12,000 FEET AGL WITH NO
       SIGNIFICANT WEATHER OR OBSTRUCTIONS TO VISION.

      THIS PRODUCT IS RELEASED AS TWO VERSIONS.  ONE VERSION NEAR
      THE TOP OF THE HOUR CONTAINING PRELIMINARY DATA FROM ALBUQUERQUE
      AND OTHER STATIONS.  A FINAL VERSION WITH ADDITIONAL DATA IS
      ISSUED ABOUT 10 MINUTES AFTER THE HOUR.

NMZ501-503-504-510>518-182100-
NORTHWEST PLATEAU/NORTHCENTRAL MOUNTAINS

CITY           SKY/WX    TMP DP  RH WIND       PRES   REMARKS
FARMINGTON     MOSUNNY   39  31  72 W7        30.11F WCI  34
LOS ALAMOS     CLOUDY    34  27  76 NE3       30.08F
SANTA FE       MOSUNNY   40  26  57 NW6       30.07F
TAOS           MOSUNNY   34  27  75 N7        30.09F WCI  28
ANGEL FIRE     FAIR      31  21  67 W13       30.05F WCI  21

$$
NMZ402-403-502-505>509-182100-
WESTCENTRAL MOUNTAINS/SOUTHWEST MOUNTAINS

CITY           SKY/WX    TMP DP  RH WIND       PRES   REMARKS
GALLUP         CLOUDY    36  27  69 W3        30.11F
GRANTS         CLOUDY    36  27  70 N7        30.10F WCI  31
SILVER CITY    LGT RAIN  39  36  87 NE3       30.10F

$$
NMZ407-409-411-412-182100-
SOUTHERN DESERTS

CITY           SKY/WX    TMP DP  RH WIND       PRES   REMARKS
LORDSBURG      TSTM      46  39  76 W10G17    30.09F
DEMING         CLOUDY    50  39  66 SW6       30.08F
LAS CRUCES     CLOUDY    52  35  52 SW6       30.09F
HOLLOMAN AFB   PTSUNNY   54  32  42 CALM      30.06F
ALAMOGORDO     CLOUDY    54  30  40 CALM      30.08F
T OR C         CLOUDY    50  29  44 SW9       30.06F

$$
NMZ519>523-182100-
CENTRAL VALLEYS/CENTRAL HIGHLANDS

CITY           SKY/WX    TMP DP  RH WIND       PRES   REMARKS
ALBUQUERQUE    PTSUNNY   42  28  57 W3        30.10F
DOUBLE EAGLE   PTSUNNY   39  28  65 N3        30.10S
MORIARTY ARPT  FAIR      43  24  46 W8        30.08F
CLINES CORNERS MOSUNNY   38  25  59 W20       30.03F WCI  28
BELEN          FAIR      44  30  59 NE5       30.10F
SOCORRO        CLOUDY    48  29  48 N3        30.07F

$$
NMZ524>526-539-540-182100-
SOUTHCENTRAL MOUNTAINS

CITY           SKY/WX    TMP DP  RH WIND       PRES   REMARKS
RUIDOSO        CLOUDY    41  25  52 CALM      30.10F

$$
NMZ527>531-182100-
NORTHEAST HIGHLANDS/NORTHEAST PLAINS

CITY           SKY/WX    TMP DP  RH WIND       PRES   REMARKS
LAS VEGAS      PTSUNNY   43  18  36 VRB5      30.01F
RATON          SUNNY     45  21  38 S9        30.00F
CLAYTON        SUNNY     47  32  56 SE6       30.02F

$$
NMZ532>537-182100-
EASTCENTRAL PLAINS

CITY           SKY/WX    TMP DP  RH WIND       PRES   REMARKS
TUCUMCARI      MOSUNNY   44  32  62 NE7       30.02F
CANNON AFB     NOT AVBL
CLOVIS AIRPORT MOSUNNY   54  25  32 NW9       30.03F

$$
NMZ028-029-538-182100-
SOUTHEAST PLAINS

CITY           SKY/WX    TMP DP  RH WIND       PRES   REMARKS
ROSWELL        CLOUDY    56  32  40 MISG      30.05F
ARTESIA        MOSUNNY   57  34  41 SE5       30.06F
CARLSBAD       MOSUNNY   62  34  35 E3        30.04F
HOBBS          SUNNY     57  28  33 CALM      30.07F


$$


USA.gov is the U.S. government's official web portal to all federal, state and local government web resources and services.